Regional Weather Roundup
Issued by NWS

Home | Current Version | Previous Version | Graphics & Text | Print | Product List | Glossary On
Versions: 1 2 3 4 5 6 7 8 9 10 11 12 13 14 15 16 17 18 19 20 21 22 23 24 25 26 27 28 29 30 31 32 33 34 35 36 37 38 39 40 41 42 43 44 45 46 47 48 49 50
000
ASUS43 KLMK 291102
RWRKY
KENTUCKY REGIONAL WEATHER ROUNDUP
NATIONAL WEATHER SERVICE LOUISVILLE KY
700 AM EDT SAT APR 29 2017

NOTE "FAIR" INDICATES FEW OR NO CLOUDS BELOW 12,000 FEET
WITH NO SIGNIFICANT WEATHER AND/OR OBSTRUCTIONS TO VISIBILITY.

KYZ001>023-026-027-061>063-070>075-291200-
WESTERN AND SOUTH CENTRAL KENTUCKY

CITY           SKY/WX    TMP DP  RH WIND       PRES   REMARKS
PADUCAH        CLOUDY    76  67  73 S13G21    29.84R
HENDERSON        N/A    N/A N/A N/A MISG        N/A
OWENSBORO      CLOUDY    73  68  84 S9        29.92R
HOPKINSVILLE   CLOUDY    73  68  84 SE8       29.93R
BOWLING GREEN  CLOUDY    75  69  81 S12       29.96R
GLASGOW        NOT AVBL
$$

KYZ024-025-028>034-038-045-046-053-291200-
NORTH CENTRAL KENTUCKY

CITY           SKY/WX    TMP DP  RH WIND       PRES   REMARKS
LOUISVILLE/SDF CLOUDY    68  64  87 SE10      29.93S
LOUISVILLE/LOU NOT AVBL
FORT KNOX      CLOUDY    69  65  90 SE7       29.92R
$$

KYZ035>037-039>044-047>052-055>060-089>105-291200-
NORTHEAST KENTUCKY

CITY           SKY/WX    TMP DP  RH WIND       PRES   REMARKS
LEXINGTON      CLOUDY    66  61  84 SE8       29.99F
COVINGTON      CLOUDY    63  62  97 S3        29.97R
FRANKFORT      CLOUDY    65  60  84 SE7       29.96F
$$

KYZ054-064>069-076>088-106>120-291200-
SOUTHEAST KENTUCKY

CITY           SKY/WX    TMP DP  RH WIND       PRES   REMARKS
JACKSON        CLOUDY    71  63  75 E3        30.11R
LONDON         CLOUDY    63  61  93 CALM      30.09R
SOMERSET       CLOUDY    70  63  78 S5        30.06F
MIDDLESBORO    CLOUDY    71  64  79 SE3       30.11R
MONTICELLO     CLOUDY    70  65  84 VRB7      30.06F
$$





USA.gov is the U.S. government's official web portal to all federal, state and local government web resources and services.